Aérodrome :
LOGIN :

S'inscrire | Disclaimer

   EN    FR    IT 

 










Légende :    VFR   VFR Marginal   IFR   IFR Intensif   IFR Très Intensif
Visi : 
Plafond : 
>= 8 km
>= 3000ft
5 à 8 km
1000 à 3000 ft
1500m à 5 km
500 à 1000 ft
800 à 1500m
200 à 500 ft
< 800m
< 200 ft
Symboles :   Orages  Brouillard  Fortes neiges  Fortes précipitations  Vent > 20 kt
SIGMETs :   Divers  Orages  Givrage  Turbulence  Onde Orograph.  Cendres Volcan.






- Altitude de l'aérodrome : 1649 ft
- Code IATA : HHN


EDFH - Frankfurt-Hahn Rhineland-Palatinate

DERNIER METAR :
  • 190150Z 12004KT 080V170 CAVOK 10/09 Q1014

METARs EXPIRÉS :
  • 190120Z 12004KT 070V170 CAVOK 11/09 Q1015
  • 190050Z 12004KT 080V160 CAVOK 11/10 Q1015
  • 190020Z 13004KT 090V170 CAVOK 11/10 Q1015
  • 182350Z 12008KT CAVOK 12/10 Q1015
  • 182320Z 12007KT CAVOK 12/10 Q1015

TAF TAF EDFH
Valide du 19 à 00h jusqu'au 20 à 00h UTC


182300Z 1900/1924 12008KT CAVOK
TEMPO 1903/1909 2000 BR BKN004



MET'MAP, la Météo Aéronautique d'un coup d'oeil ! - Copyright ORBIFLY Décembre 2007 - Disclaimer

ORBIFLY MET'MAP TEAM :

Programmation & Développement : Alexandra Zaïnal
Sur une idée originale de : Baudouin d'Aumeries
Assistance à la programmation : Marc-Olivier Méhu
Soutien technique & logistique : Manuel Goepfert

Contact : metmap@orbifly.com




SOURCES & CREDITS :

   NOAA